This is the latest recevied weather packets stored in our database for station/object KC8YYF. If no packets are shown the sender has not sent any weather packets the latest 10 day(s).
| Time | Temp. | Humidity | Pressure | Rain* | Wind** | Luminosity | Snow |
|---|---|---|---|---|---|---|---|
| 1777963314 | 16.11° C | 76% | 1006.6 hPa | 0 mm | - | 0 W/m² | - |
| 1777963012 | 16.11° C | 76% | 1006.8 hPa | 0 mm | - | 0 W/m² | - |
| 1777962708 | 16.11° C | 75% | 1006.9 hPa | 0 mm | - | 0 W/m² | - |
| 1777962404 | 16.11° C | 75% | 1007.1 hPa | 0 mm | - | 0 W/m² | - |
| 1777962101 | 16.11° C | 75% | 1006.9 hPa | 0 mm | - | 0 W/m² | - |
| 1777961799 | 15.56° C | 78% | 1007.1 hPa | 0 mm | - | 0 W/m² | - |
| 1777961497 | 15.56° C | 78% | 1006.9 hPa | 0 mm | - | 0 W/m² | - |
| 1777961194 | 15.56° C | 79% | 1007 hPa | 0 mm | - | 0 W/m² | - |
| 1777960890 | 15.56° C | 78% | 1007.4 hPa | 0 mm | - | 0 W/m² | - |
| 1777960586 | 15.56° C | 79% | 1007 hPa | 0 mm | - | 0 W/m² | - |
| 1777960282 | 15.56° C | 79% | 1007.4 hPa | 0 mm | - | 0 W/m² | - |
| 1777959980 | 16.11° C | 77% | 1007.4 hPa | 0 mm | - | 0 W/m² | - |
| 1777959678 | 16.11° C | 77% | 1007.5 hPa | 0 mm | - | 0 W/m² | - |
| 1777959375 | 16.67° C | 76% | 1007.7 hPa | 0 mm | - | 0 W/m² | - |
| 1777959071 | 16.67° C | 75% | 1007.5 hPa | 0 mm | - | 0 W/m² | - |
| 1777958768 | 16.67° C | 77% | 1007.6 hPa | 0 mm | - | 0 W/m² | - |
| 1777958466 | 16.11° C | 77% | 1007.8 hPa | 0 mm | - | 0 W/m² | - |
| 1777958163 | 16.11° C | 78% | 1007.7 hPa | 0 mm | - | 0 W/m² | - |
| 1777957861 | 16.11° C | 80% | 1007.8 hPa | 0 mm | - | 0 W/m² | - |
| 1777957558 | 16.11° C | 79% | 1007.8 hPa | 0 mm | - | 0 W/m² | - |
| 1777957256 | 16.11° C | 80% | 1007.8 hPa | 0 mm | - | 0 W/m² | - |
| 1777956952 | 16.11° C | 80% | 1007.7 hPa | 0 mm | - | 0 W/m² | - |
| 1777956650 | 16.11° C | 79% | 1007.7 hPa | 0 mm | - | 0 W/m² | - |
| 1777956346 | 16.11° C | 81% | 1007.8 hPa | 0 mm | - | 0 W/m² | - |
| 1777956043 | 15.56° C | 81% | 1007.6 hPa | 0 mm | - | 0 W/m² | - |
* Rain latest hour (hover to see other rain measurements)
** Current wind speed in m/s (hover to see current wind gust speed)